FW5697 Weather Reports


Display with metric or nautical units.
time (UTC)temp
F
wind
direction
speed
MPH
gust
MPH
rain 1hr
in
rain 24hr
in
rain mn
in
humidity
%
barometer
mb
20260902211545 97 0 0.0 2.0 0.00 0.00 0.00 47 1016.4
20260902210035 96 32 1.0 4.0 0.00 0.00 0.00 47 1016.5
20260902204535 97 0 0.0 3.0 0.00 0.00 0.00 48 1016.6
20260902203034 97 162 0.0 2.0 0.00 0.00 0.00 47 1016.7
20260902201538 96 38 1.0 4.0 0.00 0.00 0.00 48 1017.0
20260902200035 96 22 1.0 4.0 0.00 0.00 0.00 48 1017.1
20260902194540 96 36 1.0 3.0 0.00 0.00 0.00 48 1017.3
20260902193038 95 355 1.0 3.0 0.00 0.00 0.00 49 1017.4
20260902191537 95 148 0.0 3.0 0.00 0.00 0.00 50 1017.6
20260902190033 94 0 0.0 3.0 0.00 0.00 0.00 53 1017.7
20260902184546 93 0 0.0 0.0 0.00 0.00 0.00 53 1018.0
20260902183036 94 0 0.0 2.0 0.00 0.00 0.00 52 1018.0
20260902181533 95 0 0.0 4.0 0.00 0.00 0.00 50 1018.1
20260902180032 94 0 0.0 3.0 0.00 0.00 0.00 52 1018.3
20260902174534 93 332 1.0 3.0 0.00 0.00 0.00 56 1018.4
20260902173034 91 0 0.0 2.0 0.00 0.00 0.00 55 1018.6
20260902171534 92 22 1.0 5.0 0.00 0.00 0.00 56 1018.9
20260902170038 92 0 0.0 2.0 0.00 0.00 0.00 57 1019.0
20260902164534 91 5 1.0 3.0 0.00 0.00 0.00 56 1019.1
20260902163032 90 0 0.0 3.0 0.00 0.00 0.00 59 1019.2
20260902161549 90 275 0.0 4.0 0.00 0.00 0.00 61 1019.5
20260902160034 89 0 0.0 4.0 0.00 0.00 0.00 63 1019.5
20260902154535 88 0 0.0 3.0 0.00 0.00 0.00 65 1019.6
20260902153032 87 291 1.0 4.0 0.00 0.00 0.00 67 1019.7
20260902151537 86 44 1.0 3.0 0.00 0.00 0.00 71 1019.7
20260902150037 84 337 0.0 3.0 0.00 0.00 0.00 78 1019.7
20260902144537 83 0 0.0 2.0 0.00 0.00 0.00 80 1019.6
20260902143032 81 0 0.0 2.0 0.00 0.00 0.00 82 1019.6
20260902141537 80 0 0.0 2.0 0.00 0.00 0.00 85 1019.7
20260902140036 78 0 0.0 1.0 0.00 0.00 0.00 89 1019.7
20260902134538 76 0 0.0 0.0 0.00 0.00 0.00 93 1019.5
20260902133031 75 0 0.0 0.0 0.00 0.00 0.00 95 1019.5
20260902131533 74 0 0.0 0.0 0.00 0.00 0.00 97 1019.6
20260902130034 73 0 0.0 0.0 0.00 0.00 0.00 97 1019.6
20260902124532 72 0 0.0 0.0 0.00 0.00 0.00 97 1019.7
20260902123041 72 0 0.0 0.0 0.00 0.00 0.00 97 1019.6
20260902121535 71 0 0.0 0.0 0.00 0.00 0.00 97 1019.5
20260902120036 71 0 0.0 0.0 0.00 0.00 0.00 97 1019.2
20260902114539 71 0 0.0 0.0 0.00 0.00 0.00 97 1019.1
20260902113035 71 0 0.0 0.0 0.00 0.00 0.00 96 1019.1
20260902111532 71 0 0.0 0.0 0.00 0.00 0.00 96 1019.0
20260902110034 71 0 0.0 0.0 0.00 0.00 0.00 96 1018.9
20260902104546 71 0 0.0 0.0 0.00 0.00 0.00 96 1018.7
20260902103040 71 0 0.0 0.0 0.00 0.00 0.00 96 1018.6
20260902101531 72 0 0.0 0.0 0.00 0.00 0.00 96 1018.5
20260902100033 72 0 0.0 0.0 0.00 0.00 0.00 96 1018.4
20260902094533 72 0 0.0 0.0 0.00 0.00 0.00 96 1018.4
20260902093035 72 0 0.0 0.0 0.00 0.00 0.00 96 1018.3
20260902091531 72 0 0.0 0.0 0.00 0.00 0.00 96 1018.1
20260902090032 72 0 0.0 0.0 0.00 0.00 0.00 96 1018.1
20260902084533 72 0 0.0 0.0 0.00 0.00 0.00 96 1017.9
20260902083031 72 0 0.0 0.0 0.00 0.00 0.00 96 1017.8
20260902081535 73 0 0.0 1.0 0.00 0.00 0.00 96 1017.8
20260902080034 73 0 0.0 0.0 0.00 0.00 0.00 95 1017.7
20260902074534 73 0 0.0 0.0 0.00 0.00 0.00 95 1017.7
20260902073045 73 0 0.0 0.0 0.00 0.00 0.00 95 1017.8
20260902071532 73 0 0.0 0.0 0.00 0.00 0.00 95 1017.9
20260902070036 74 0 0.0 0.0 0.00 0.00 0.00 95 1018.0
20260902064538 74 0 0.0 0.0 0.00 0.00 0.00 95 1017.8
20260902063032 74 0 0.0 0.0 0.00 0.00 0.00 95 1017.8
20260902061534 74 0 0.0 1.0 0.00 0.00 0.00 95 1018.0
20260902060034 74 0 0.0 0.0 0.00 0.00 0.00 94 1018.2
20260902054531 74 0 0.0 0.0 0.00 0.00 0.00 94 1018.1
20260902053042 75 0 0.0 0.0 0.00 0.00 0.00 94 1018.2
20260902051535 75 0 0.0 0.0 0.00 0.00 0.00 94 1018.1
20260902050031 75 0 0.0 0.0 0.00 0.00 0.00 93 1018.1
20260902044534 75 0 0.0 0.0 0.00 0.00 0.00 93 1018.1
20260902043035 75 0 0.0 0.0 0.00 0.00 0.00 93 1018.1
20260902041536 76 0 0.0 0.0 0.00 0.00 0.00 93 1018.0
20260902040035 76 0 0.0 0.0 0.00 0.00 0.00 92 1018.0
20260902034534 76 0 0.0 0.0 0.00 0.00 0.00 92 1018.1
20260902033036 76 0 0.0 0.0 0.00 0.00 0.00 92 1018.0
20260902031534 77 0 0.0 0.0 0.00 0.00 0.00 91 1018.0
20260902030034 77 0 0.0 1.0 0.00 0.00 0.00 91 1018.1
20260902024534 77 0 0.0 0.0 0.00 0.00 0.00 90 1018.0
20260902023042 78 0 0.0 0.0 0.00 0.00 0.00 90 1018.0
20260902021533 78 0 0.0 0.0 0.00 0.00 0.00 89 1017.8
20260902020033 79 0 0.0 0.0 0.00 0.00 0.00 89 1017.9
20260902014541 79 0 0.0 0.0 0.00 0.00 0.00 87 1017.8
20260902013034 80 0 0.0 0.0 0.00 0.00 0.00 87 1017.7
20260902011542 80 0 0.0 0.0 0.00 0.00 0.00 85 1017.5
20260902010032 81 0 0.0 0.0 0.00 0.00 0.00 83 1017.3
20260902004534 82 0 0.0 0.0 0.00 0.00 0.00 80 1017.3
20260902003038 83 0 0.0 0.0 0.00 0.00 0.00 79 1017.2
20260902001533 83 0 0.0 0.0 0.00 0.00 0.00 76 1017.2
20260902000040 85 0 0.0 0.0 0.00 0.00 0.00 74 1017.2
20260901234534 86 0 0.0 0.0 0.00 0.00 0.00 70 1017.3
20260901233036 87 0 0.0 0.0 0.00 0.00 0.00 67 1017.3
20260901231535 88 0 0.0 0.0 0.00 0.00 0.00 66 1017.4
20260901230032 89 0 0.0 0.0 0.00 0.00 0.00 65 1017.3
20260901224534 89 0 0.0 0.0 0.00 0.00 0.00 63 1017.2
20260901223032 89 0 0.0 1.0 0.00 0.00 0.00 63 1017.2
20260901221538 91 101 0.0 1.0 0.00 0.00 0.00 64 1017.2
20260901220039 92 0 0.0 0.0 0.00 0.00 0.00 59 1017.2
20260901214547 94 0 0.0 3.0 0.00 0.00 0.00 52 1017.2
20260901213034 95 15 0.0 2.0 0.00 0.00 0.00 54 1017.2